sat.trackr.live / text

‹ back to catalog

STARLINK-2702

NORAD 48441 · 2021-040P

PAYLOAD ACTIVE UNKNOWN

§ Identity

Operator
Country
US
Launch date
2021-05-09
Launch site
AFETR
Launch vehicle
Mass (kg)
RCS (m²)

Purposes: comms

External: N2YO · Heavens-Above · Gunter

§ Orbital elements

Epoch: 2026-05-25T02:29:15.265824Z

Period
94.01 min
Inclination
53.1586°
Eccentricity
0.0001181
Mean motion
15.31701410 rev/d
Perigee alt
469.9 km
Apogee alt
471.5 km
Semi-major
6,848.9 km
B*
4.1552e-5
RAAN
182.8105°
Arg perigee
62.4105°
Mean anomaly
297.7016°
Rev number
27,838

§ Raw data

STARLINK-27021 48441U 21040P   26145.10364891  .00000925  00000+0  41552-4 0  99942 48441  53.1586 182.8105 0001181  62.4105 297.7016 15.31701410278388

JSON: /api/v1/satellites/48441 · /tle

For live sub-satellite position, see the globe view (requires WebGL).

§ Visibility from observer

Set your observer location to see the next 7 days of passes ≥ 10°. The values pass through the URL so the page stays shareable.

No JS? Fill the form by hand. The geolocation button needs JavaScript.